Date String (YYYY-MM-DD hh:mm:ss) UTC,Instrument flags,absolute air pressure of the measurement (hPa),sample flow rate (lpm),inlet stack bypass flow (lpm),air temperature of the measurement (°C),ambient temperature measured by the external sensor (°C),aerosol sample conditioner tube jacket temperature (°C),OPC LED temperature (°C),internal box temperature (°C),relative humidity of the measurement (%),span deviation,mass concentration of particles derived from Lorenz-Mie calculation of OPC scattering (μg/m³),mass concentration of particles derived from Lorenz-Mie calculation of OPC scattering (μg/m³),mass concentration of particles derived from Lorenz-Mie calculation of OPC scattering (μg/m³)
DateTimeUTC,F1_M11,P_M11,Q1_M11,Q2_M11,T1_M11,T2_M11,T3_M11,T4_M11,T5_M11,U1_M11,ZSPAN_M11,X0_M11,X2_M11,X1_M11
2023-07-29 07:00:00,SystemResetWarning,0837.0,4.98,000.00,029.1,026.0,000.0,037.6,030.4,32.1,0000.0,0016.30,0005.32,0004.18
2023-07-29 07:01:00,SystemResetWarning,0836.9,4.99,000.00,029.1,026.4,000.0,037.6,030.5,32.2,0000.0,0016.05,0005.40,0004.19
2023-07-29 07:02:00,SystemResetWarning,0836.9,5.00,000.00,029.1,026.7,000.0,037.6,030.6,32.2,0000.0,0015.42,0005.42,0004.20
2023-07-29 07:03:00,SystemResetWarning,0836.9,5.01,000.00,029.1,027.0,000.0,037.6,030.7,32.2,0000.0,0015.18,0005.46,0004.19
2023-07-29 07:04:00,SystemResetWarning,0836.8,5.00,000.00,029.1,027.3,000.0,037.6,030.7,32.2,0000.0,0014.34,0005.50,0004.19
2023-07-29 07:05:00,SystemResetWarning,0836.8,5.01,000.00,029.2,027.5,000.0,037.6,030.8,32.2,0000.0,0013.55,0005.47,0004.19
2023-07-29 07:06:00,SystemResetWarning,0836.8,4.99,000.00,029.2,027.7,000.0,037.6,030.8,32.2,0000.0,0013.68,0005.47,0004.19
2023-07-29 07:07:00,SystemResetWarning,0836.9,4.99,000.00,029.2,027.8,000.0,037.6,030.9,32.1,0000.0,0013.78,0005.49,0004.18
2023-07-29 07:08:00,SystemResetWarning,0836.8,5.00,000.00,029.2,027.9,000.0,037.7,030.9,31.9,0000.0,0013.71,0005.49,0004.18
2023-07-29 07:09:00,SystemResetWarning,0836.8,5.01,000.00,029.3,028.1,000.0,037.7,030.9,31.8,0000.0,0013.09,0005.47,0004.19
2023-07-29 07:10:00,SystemResetWarning,0836.7,5.00,000.00,029.3,028.1,000.0,037.7,031.0,31.8,0000.0,0012.93,0005.50,0004.20
2023-07-29 07:11:00,SystemResetWarning,0836.8,5.00,000.00,029.3,028.2,000.0,037.7,031.0,31.8,0000.0,0013.00,0005.46,0004.20
2023-07-29 07:12:00,SystemResetWarning,0836.7,5.00,000.00,029.4,028.3,000.0,037.7,031.1,31.9,0000.0,0013.64,0005.41,0004.21
2023-07-29 07:13:00,SystemResetWarning,0836.7,5.00,000.00,029.4,028.3,000.0,037.8,031.1,31.7,0000.0,0014.85,0005.39,0004.20
2023-07-29 07:14:00,SystemResetWarning,0836.7,5.00,000.00,029.4,028.4,000.0,037.8,031.1,31.6,0000.0,0014.98,0005.35,0004.20
2023-07-29 07:15:00,SystemResetWarning,0836.7,4.99,000.00,029.5,027.8,000.0,037.8,031.1,31.4,0000.0,0014.78,0005.31,0004.20
2023-07-29 07:16:00,SystemResetWarning,0836.6,5.01,000.00,029.4,026.1,000.0,037.6,030.9,31.5,0000.0,0014.60,0005.34,0004.20
2023-07-29 07:17:00,SystemResetWarning,0836.7,5.01,000.00,029.3,025.4,000.0,037.6,030.7,31.5,0000.0,0013.96,0005.36,0004.21
2023-07-29 07:18:00,SystemResetWarning,0836.7,5.01,000.00,029.2,025.5,000.0,037.6,030.4,31.7,0000.0,0014.31,0005.37,0004.21
2023-07-29 07:19:00,SystemResetWarning,0836.7,4.99,000.00,029.2,025.9,000.0,037.6,030.5,31.7,0000.0,0014.53,0005.38,0004.20
2023-07-29 07:20:00,SystemResetWarning,0836.8,5.00,000.00,029.1,026.3,000.0,037.6,030.5,31.7,0000.0,0014.60,0005.36,0004.19
2023-07-29 07:21:00,SystemResetWarning,0836.8,5.00,000.00,029.1,026.6,000.0,037.6,030.6,31.6,0000.0,0014.14,0005.36,0004.18
2023-07-29 07:22:00,SystemResetWarning,0836.7,5.00,000.00,029.1,026.9,000.0,037.7,030.7,31.2,0000.0,0014.74,0005.44,0004.17
2023-07-29 07:23:00,SystemResetWarning,0836.6,5.00,000.00,029.2,027.2,000.0,037.7,030.7,31.0,0000.0,0015.05,0005.43,0004.15
2023-07-29 07:24:00,SystemResetWarning,0836.7,5.01,000.00,029.2,027.4,000.0,037.7,030.8,30.8,0000.0,0014.76,0005.39,0004.15
2023-07-29 07:25:00,SystemResetWarning,0836.6,5.01,000.00,029.2,027.6,000.0,037.7,030.8,30.7,0000.0,0014.66,0005.38,0004.15
2023-07-29 07:26:00,SystemResetWarning,0836.6,5.00,000.00,029.2,027.7,000.0,037.7,030.8,30.9,0000.0,0015.32,0005.40,0004.15
2023-07-29 07:27:00,SystemResetWarning,0836.6,4.99,000.00,029.3,027.8,000.0,037.7,030.9,31.1,0000.0,0015.71,0005.37,0004.13
2023-07-29 07:28:00,SystemResetWarning,0836.6,4.99,000.00,029.3,027.9,000.0,037.7,030.9,31.3,0000.0,0015.99,0005.36,0004.12
2023-07-29 07:29:00,SystemResetWarning,0836.6,5.00,000.00,029.3,028.0,000.0,037.7,030.9,31.2,0000.0,0016.37,0005.39,0004.13
2023-07-29 07:30:00,SystemResetWarning,0836.7,5.01,000.00,029.3,028.1,000.0,037.7,031.0,31.2,0000.0,0016.71,0005.37,0004.13
2023-07-29 07:31:00,SystemResetWarning,0836.6,5.01,000.00,029.4,028.2,000.0,037.8,031.0,31.1,0000.0,0017.13,0005.38,0004.13
2023-07-29 07:32:00,SystemResetWarning,0836.5,5.01,000.00,029.4,028.2,000.0,037.8,031.0,31.0,0000.0,0017.10,0005.35,0004.12
2023-07-29 07:33:00,SystemResetWarning,0836.5,5.00,000.00,029.4,028.3,000.0,037.8,031.1,31.0,0000.0,0016.33,0005.28,0004.12
2023-07-29 07:34:00,SystemResetWarning,0836.5,4.99,000.00,029.5,028.3,000.0,037.8,031.1,30.5,0000.0,0015.37,0005.33,0004.12
2023-07-29 07:35:00,SystemResetWarning,0836.5,5.00,000.00,029.5,028.3,000.0,037.8,031.1,30.2,0000.0,0014.36,0005.40,0004.13
2023-07-29 07:36:00,SystemResetWarning,0836.5,5.00,000.00,029.5,028.1,000.0,037.8,031.1,29.8,0000.0,0014.21,0005.42,0004.13
2023-07-29 07:37:00,SystemResetWarning,0836.5,5.00,000.00,029.5,026.4,000.0,037.7,030.9,29.6,0000.0,0014.08,0005.38,0004.13
2023-07-29 07:38:00,SystemResetWarning,0836.4,5.00,000.00,029.4,025.3,000.0,037.6,030.7,29.8,0000.0,0013.91,0005.39,0004.15
2023-07-29 07:39:00,SystemResetWarning,0836.4,5.01,000.00,029.3,025.3,000.0,037.6,030.3,30.0,0000.0,0013.53,0005.37,0004.16
2023-07-29 07:40:00,SystemResetWarning,0836.4,5.01,000.00,029.2,025.6,000.0,037.7,030.4,30.4,0000.0,0013.33,0005.32,0004.17
2023-07-29 07:41:00,SystemResetWarning,0836.4,5.00,000.00,029.1,026.0,000.0,037.7,030.4,29.6,0000.0,0013.14,0005.34,0004.19
2023-07-29 07:42:00,SystemResetWarning,0836.4,4.99,000.00,029.1,026.4,000.0,037.7,030.5,29.3,0000.0,0012.44,0005.31,0004.21
2023-07-29 07:43:00,SystemResetWarning,0836.4,5.00,000.00,029.1,026.7,000.0,037.7,030.6,29.4,0000.0,0012.27,0005.30,0004.24
2023-07-29 07:44:00,SystemResetWarning,0836.4,5.01,000.00,029.1,027.0,000.0,037.7,030.6,29.8,0000.0,0011.97,0005.30,0004.26
2023-07-29 07:45:00,SystemResetWarning,0836.3,5.01,000.00,029.1,027.2,000.0,037.7,030.7,30.4,0000.0,0011.68,0005.25,0004.27
2023-07-29 07:46:00,SystemResetWarning,0836.3,4.99,000.00,029.2,027.4,000.0,037.7,030.7,30.8,0000.0,0011.60,0005.21,0004.28
2023-07-29 07:47:00,SystemResetWarning,0836.3,4.99,000.00,029.2,027.6,000.0,037.7,030.8,31.3,0000.0,0011.85,0005.20,0004.28
2023-07-29 07:48:00,SystemResetWarning,0836.2,5.00,000.00,029.2,027.7,000.0,037.7,030.8,31.4,0000.0,0011.73,0005.18,0004.28
2023-07-29 07:49:00,SystemResetWarning,0836.2,5.01,000.00,029.2,027.8,000.0,037.7,030.8,31.4,0000.0,0011.23,0005.19,0004.28
2023-07-29 07:50:00,SystemResetWarning,0836.2,5.01,000.00,029.3,027.9,000.0,037.7,030.9,31.5,0000.0,0011.39,0005.19,0004.28
2023-07-29 07:51:00,SystemResetWarning,0836.2,5.01,000.00,029.3,028.0,000.0,037.7,030.9,31.3,0000.0,0011.00,0005.16,0004.27
2023-07-29 07:52:00,SystemResetWarning,0836.2,4.99,000.00,029.3,028.0,000.0,037.7,030.9,31.1,0000.0,0009.99,0005.14,0004.27
2023-07-29 07:53:00,SystemResetWarning,0836.2,4.99,000.00,029.3,028.1,000.0,037.7,031.0,30.7,0000.0,0010.17,0005.17,0004.29
2023-07-29 07:54:00,SystemResetWarning,0836.2,4.99,000.00,029.4,028.2,000.0,037.8,031.0,30.6,0000.0,0010.24,0005.20,0004.31
2023-07-29 07:55:00,SystemResetWarning,0836.2,4.99,000.00,029.4,028.2,000.0,037.8,031.0,30.2,0000.0,0010.30,0005.23,0004.33
2023-07-29 07:56:00,SystemResetWarning,0836.2,5.01,000.00,029.4,028.2,000.0,037.8,031.0,29.8,0000.0,0010.31,0005.24,0004.34
2023-07-29 07:57:00,SystemResetWarning,0836.1,5.01,000.00,029.4,028.3,000.0,037.8,031.1,29.4,0000.0,0010.22,0005.24,0004.35
2023-07-29 07:58:00,SystemResetWarning,0836.1,5.00,000.00,029.5,028.3,000.0,037.8,031.1,28.9,0000.0,0009.90,0005.22,0004.37
2023-07-29 07:59:00,SystemResetWarning,0836.1,5.00,000.00,029.5,028.3,000.0,037.9,031.1,28.6,0000.0,0009.65,0005.25,0004.40
